Location: Unspecified
(35.6961°N, 0.0000°E)
Time: 17:34:16
(UTC+00:00)

S-56A Canister/Altair - Pass Details

Date: 01 June 2019
Orbit: 633 x 2499 km, 38.9° (Epoch: 16 June)

Event Time Altitude Azimuth Distance (km) Brightness Sun altitude
Rises 20:52:18 0° 214° (SW) 3,006 10.5 -17.4°
Reaches altitude 10° 20:55:02 10° 200° (SSW) 2,020 9.4 -17.8°
Enters shadow 20:55:10 11° 199° (SSW) 1,977 9.4 -17.8°
Maximum altitude 20:58:36 24° 145° (SE) 1,316 - -18.3°
Drops below altitude 10° 21:02:20 10° 91° (E) 2,100 - -18.8°
Sets 21:05:13 0° 78° (ENE) 3,158 - -19.2°
